Tracking 28790 objects as of 19-Apr-2024
HD Live streaming from Space Station
objects crossing your sky now

THORAD AGENA D DEB

Track THORAD AGENA D DEB now!
10-day predictions


NORAD ID: 5390
Int'l Code: 1970-025KV
Perigee: 918.7 km
Apogee: 991.9 km
Inclination: 100.1 °
Period: 104.0 minutes
Semi major axis: 7326 km
RCS: 0.0078 m2 (small)
Launch date: April 8, 1970
Source: United States (US)
Launch site: AIR FORCE WESTERN TEST RANGE (AFWTR)

Note: This is SATELLITE DEBRIS
Your satellite tracking list
Your tracking list is empty




NASA's NSSDC Master Catalog

Two Line Element Set (TLE):
1 05390U 70025KV  24109.87784020  .00002306  00000-0  20833-2 0  9992
2 05390 100.0960  85.7863 0049949 214.5334 212.6798 13.84450372699858
Source of the keplerian elements: AFSPC